NOAA 16 DEB

Satellite information

Favourite Embed

Satellite Type and Status

DEBRISIN ORBIT

Key statistics

Satellite NOAA 16 DEB at a glance.

Uptime

9215

Days in orbit

Revolutions

≈ 14.3

Per day

Orbit

SSO

Sun Synchronous Orbit

Inclination

98.9

Latest

Satellite identification and parameters

Extended collection of information and parameters for NOAA 16 DEB.

Object identification

Identified? True

Debris? True

Object name: NOAA 16 DEB

International designator: 2000-055MG

Object number (NORAD): 41508

Object ID (CCSDS): 41508

Country: UNITED STATES OF AMERICA (US)

Current information (Y/N): Y

RCS size: SMALL

Orbital parameters

Period: 100.502 minutes

Inclination: 98.8532 deg

SMA: 7160.497 km

Apoapsis: 800.435 km

Periapsis: 764.289 km

RAAN: 102.2213 deg

Eccentricy: 0.00252403

Argument of periapsis: 113.8293 deg

Mean anomaly: 246.5539 deg

Mean motion: 14.32807982 rev/day

Mean motion (dot): 0.00007739 rev/day2

B* drag term: 0.0028424301 1/REarth

Two-line elements (TLE)

Creation date: Dec. 11, 2025, 7:14 p.m.

Reference frame: TEME

Reference center: EARTH

Epoch: Dec. 11, 2025, 1:51 p.m. UTC

TLE line 0: 0 NOAA 16 DEB

TLE line 1: 1 41508U 00055MG 25345.57755927 .00007739 00000-0 28424-2 0 9992

TLE line 2: 2 41508 98.8532 102.2213 0025240 113.8293 246.5539 14.32807982499769

Live tracking on map

Real-time ground track for satellite NOAA 16 DEB.

In-orbit conjunctions

A list of the most updated potential collisions computed for object NOAA 16 DEB.

Target Orbit TCA Probability of collision Miss distance Type
COSMOS 968 LEO 2025-10-24 10:30:07 0.0003254315 291.0 (m) PAYLOAD
SL-16 DEB LEO 2024-09-18 22:52:57 0.0004484477 17.0 (m) DEBRIS

Associated space launch

The NOAA K, L and M POES satellites begin the fifth generation of improved environmental monitoring in support of NOAA missions. The instrument payload has significant improvements and additions/deletions. The instrument changes have effected the spacecraft subsystems and data formats.

NOAA 16 DEB was lifted into orbit during the mission ‘Titan II SLV | NOAA 16’, on board a Titan II SLV space rocket.

The launch took place on Sept. 21, 2000, 10:22 a.m. from Space Launch Complex 4W.

For more information about the launch, click the button.

Launch to space Titan II SLV | NOAA 16
Titan II SLV | NOAA 16

Agency: N/A

Status: Launch Successful

Launch date: Sept. 21, 2000, 10:22 a.m. UTC

Rocket: Titan II SLV

Launch pad: Space Launch Complex 4W

Location: Vandenberg SFB, CA, USA

...

Latest news about this satellite

There are no fresh news available about this satellite. Check back as we update our databases every day.


Newsletter sign-up

Weekly statistics, charts and insights to help you stay on top of the space industry.